Weather History for KOKV - January, 2014

Change the Weather History Date:

Monday, January 27, 2014

  Actual Average Record
Temperature  
Mean Temperature 30 °F -  
Max Temperature 44 °F 40 °F 69 °F (2002)
Min Temperature 15 °F 24 °F 3 °F (1987)
Degree Days  
Heating Degree Days 36    
Moisture  
Dew Point 12 °F    
Average Humidity 49    
Maximum Humidity 70    
Minimum Humidity 39    
Precipitation  
Precipitation 0.00 in - - ()
Sea Level Pressure  
Sea Level Pressure 29.84 in    
Wind  
Wind Speed 9 mph (West)    
Max Wind Speed 24 mph    
Max Gust Speed 33 mph    
Visibility 10 miles    
Events      
Averages and records for this station are not official NWS values.
T = Trace of Precipitation, MM = Missing Value Source: NWS Daily Summary

Daily Weather History Graph

Daily Weather History Graph

Search for Another Location

Airport or City:

Trip Planner

Search our weather history database for the weather conditions in past years. The results will help you decide how hot, cold, wet, or windy it might be!

Date:

Astronomy

Jan. 27, 2014 Rise Set
Actual Time 7:23 AM EST 5:27 PM EST
Civil Twilight 6:54 AM EST 5:56 PM EST
Nautical Twilight 6:22 AM EST 6:28 PM EST
Astronomical Twilight 5:51 AM EST 7:00 PM EST
Moon 4:02 AM EST (1/27) 2:12 PM EST (1/27)
Length of Visible Light 11h 01m
Length of Day
10h 04m
Waning Crescent, 15% of the Moon is Illuminated
Jan 27
Waning Crescent
Jan 30
New
Feb 6
First Quarter
Feb 14
Full
Feb 22
Last Quarter

Hourly Weather History & Observations

Time (EST) Temp. Windchill Dew Point Humidity Pressure Visibility Wind Dir Wind Speed Gust Speed Precip Events Conditions
12:15 AM 28.4 °F 23.3 °F 8.6 °F 43% 29.66 in 10.0 mi SSW 4.6 mph - N/A   Clear
12:35 AM 28.4 °F 24.6 °F 10.4 °F 47% 29.65 in 10.0 mi South 3.5 mph - N/A   Clear
12:55 AM 28.4 °F 22.2 °F 10.4 °F 47% 29.64 in 10.0 mi South 5.8 mph - N/A   Clear
1:15 AM 30.2 °F 24.3 °F 10.4 °F 44% 29.64 in 10.0 mi SSW 5.8 mph - N/A   Clear
1:35 AM 30.2 °F 25.4 °F 10.4 °F 44% 29.63 in 10.0 mi SSW 4.6 mph - N/A   Clear
1:55 AM 30.2 °F 25.4 °F 10.4 °F 44% 29.63 in 10.0 mi SSW 4.6 mph - N/A   Clear
2:15 AM 32.0 °F 27.5 °F 12.2 °F 44% 29.64 in 10.0 mi SSW 4.6 mph - N/A   Clear
2:35 AM 32.0 °F 26.4 °F 12.2 °F 44% 29.63 in 10.0 mi SSW 5.8 mph - N/A   Clear
2:55 AM 32.0 °F 25.6 °F 14.0 °F 48% 29.63 in 10.0 mi SSW 6.9 mph - N/A   Clear
3:15 AM 32.0 °F 26.4 °F 14.0 °F 48% 29.63 in 10.0 mi SSW 5.8 mph - N/A   Clear
3:35 AM 32.0 °F 27.5 °F 15.8 °F 51% 29.62 in 10.0 mi SSW 4.6 mph - N/A   Clear
3:55 AM 33.8 °F 29.6 °F 17.6 °F 52% 29.61 in 10.0 mi SW 4.6 mph - N/A   Clear
4:15 AM 33.8 °F 27.7 °F 17.6 °F 52% 29.60 in 10.0 mi SW 6.9 mph - N/A   Clear
4:35 AM 33.8 °F 27.7 °F 17.6 °F 52% 29.60 in 10.0 mi SW 6.9 mph - N/A   Clear
4:55 AM 33.8 °F 27.0 °F 19.4 °F 56% 29.61 in 10.0 mi SW 8.1 mph - N/A   Scattered Clouds
5:15 AM 35.6 °F 29.9 °F 19.4 °F 52% 29.60 in 10.0 mi SSW 6.9 mph - N/A   Scattered Clouds
5:35 AM 35.6 °F 30.7 °F 19.4 °F 52% 29.61 in 10.0 mi WSW 5.8 mph - N/A   Scattered Clouds
5:55 AM 35.6 °F 30.7 °F 21.2 °F 56% 29.61 in 10.0 mi SW 5.8 mph - N/A   Mostly Cloudy
6:15 AM 35.6 °F 31.7 °F 21.2 °F 56% 29.60 in 10.0 mi SW 4.6 mph - N/A   Mostly Cloudy
6:35 AM 35.6 °F 31.7 °F 21.2 °F 56% 29.61 in 10.0 mi WSW 4.6 mph - N/A   Mostly Cloudy
6:55 AM 35.6 °F 29.2 °F 23.0 °F 60% 29.61 in 10.0 mi SW 8.1 mph - N/A   Mostly Cloudy
7:15 AM 37.4 °F 32.1 °F 23.0 °F 56% 29.62 in 10.0 mi SW 6.9 mph - N/A   Overcast
7:35 AM 37.4 °F 31.4 °F 24.8 °F 60% 29.63 in 10.0 mi SW 8.1 mph - N/A   Overcast
7:55 AM 37.4 °F 32.1 °F 24.8 °F 60% 29.64 in 10.0 mi SW 6.9 mph - N/A   Overcast
8:15 AM 37.4 °F 32.8 °F 24.8 °F 60% 29.64 in 10.0 mi SW 5.8 mph - N/A   Mostly Cloudy
8:35 AM 37.4 °F 32.8 °F 26.6 °F 65% 29.65 in 10.0 mi SW 5.8 mph - N/A   Scattered Clouds
8:55 AM 41.0 °F 35.8 °F 26.6 °F 57% 29.65 in 10.0 mi WSW 8.1 mph - N/A   Scattered Clouds
9:15 AM 44.6 °F 40.2 °F 28.4 °F 53% 29.67 in 10.0 mi WSW 8.1 mph - N/A   Scattered Clouds
9:35 AM 44.6 °F 42.2 °F 28.4 °F 53% 29.69 in 10.0 mi West 4.6 mph - N/A   Mostly Cloudy
9:55 AM 37.4 °F 26.1 °F 28.4 °F 70% 29.74 in 10.0 mi WNW 24.2 mph 33.4 mph N/A   Overcast
10:15 AM 35.6 °F 24.8 °F 26.6 °F 70% 29.76 in 10.0 mi NW 19.6 mph 26.5 mph N/A   Mostly Cloudy
10:35 AM 35.6 °F 25.5 °F 24.8 °F 65% 29.78 in 10.0 mi WNW 17.3 mph 26.5 mph N/A   Mostly Cloudy
10:55 AM 35.6 °F 24.8 °F 21.2 °F 56% 29.80 in 10.0 mi NW 19.6 mph 26.5 mph N/A   Overcast
11:15 AM 35.6 °F 24.0 °F 21.2 °F 56% 29.82 in 10.0 mi WNW 23.0 mph - N/A   Overcast
11:35 AM 35.6 °F 23.7 °F 21.2 °F 56% 29.81 in 10.0 mi WNW 24.2 mph 32.2 mph N/A   Overcast
11:55 AM 35.6 °F 24.2 °F 19.4 °F 52% 29.82 in 10.0 mi WNW 21.9 mph 31.1 mph N/A   Scattered Clouds
12:15 PM 35.6 °F 26.2 °F 17.6 °F 48% 29.83 in 10.0 mi West 15.0 mph 32.2 mph N/A   Clear
12:35 PM 33.8 °F 22.8 °F 15.8 °F 48% 29.85 in 10.0 mi NW 18.4 mph 26.5 mph N/A   Scattered Clouds
12:55 PM 32.0 °F 25.6 °F 15.8 °F 51% 29.86 in 10.0 mi North 6.9 mph 17.3 mph N/A   Overcast
1:15 PM 30.2 °F 22.6 °F 14.0 °F 51% 29.88 in 10.0 mi NW 8.1 mph 16.1 mph N/A   Overcast
1:35 PM 30.2 °F 19.3 °F 12.2 °F 47% 29.89 in 10.0 mi NW 15.0 mph 25.3 mph N/A   Overcast
1:55 PM 28.4 °F 15.4 °F 12.2 °F 51% 29.89 in 10.0 mi NW 19.6 mph 26.5 mph N/A   Overcast
2:15 PM 28.4 °F 16.2 °F 10.4 °F 47% 29.90 in 10.0 mi WNW 17.3 mph 26.5 mph N/A   Overcast
2:35 PM 28.4 °F 16.2 °F 8.6 °F 43% 29.90 in 10.0 mi WNW 17.3 mph 28.8 mph N/A   Overcast
2:55 PM 28.4 °F 16.6 °F 10.4 °F 47% 29.91 in 10.0 mi NW 16.1 mph 21.9 mph N/A   Mostly Cloudy
3:15 PM 28.4 °F 19.7 °F 8.6 °F 43% 29.91 in 10.0 mi NW 9.2 mph 17.3 mph N/A   Scattered Clouds
3:35 PM 28.4 °F 17.0 °F 6.8 °F 40% 29.92 in 10.0 mi NW 15.0 mph 21.9 mph N/A   Mostly Cloudy
3:55 PM 26.6 °F 13.1 °F 6.8 °F 43% 29.93 in 10.0 mi NW 19.6 mph 25.3 mph N/A   Scattered Clouds
4:15 PM 28.4 °F 17.0 °F 6.8 °F 40% 29.95 in 10.0 mi NW 15.0 mph - N/A   Clear
4:35 PM 26.6 °F 16.2 °F 5.0 °F 40% 29.96 in 10.0 mi NNW 11.5 mph 15.0 mph N/A   Clear
4:55 PM 26.6 °F 14.3 °F 5.0 °F 40% 29.98 in 10.0 mi NW 16.1 mph 23.0 mph N/A   Clear
5:15 PM 26.6 °F 15.2 °F 5.0 °F 40% 29.99 in 10.0 mi NW 13.8 mph 21.9 mph N/A   Clear
5:35 PM 24.8 °F 12.9 °F 5.0 °F 43% 29.99 in 10.0 mi WNW 13.8 mph 24.2 mph N/A   Clear
5:55 PM 24.8 °F 13.4 °F 5.0 °F 43% 30.01 in 10.0 mi NW 12.7 mph - N/A   Clear
6:15 PM 23.0 °F 12.4 °F 5.0 °F 46% 30.02 in 10.0 mi NW 10.4 mph - N/A   Clear
6:35 PM 23.0 °F 12.4 °F 3.2 °F 43% 30.04 in 10.0 mi NW 10.4 mph 19.6 mph N/A   Clear
6:55 PM 23.0 °F 11.7 °F 1.4 °F 39% 30.05 in 10.0 mi NW 11.5 mph 18.4 mph N/A   Clear
7:15 PM 21.2 °F 10.1 °F 3.2 °F 46% 30.06 in 10.0 mi WNW 10.4 mph - N/A   Clear
7:35 PM 21.2 °F 10.1 °F 1.4 °F 42% 30.08 in 10.0 mi NW 10.4 mph - N/A   Clear
7:55 PM 19.4 °F 7.2 °F -0.4 °F 42% 30.09 in 10.0 mi WNW 11.5 mph 17.3 mph N/A   Clear
8:15 PM 19.4 °F 8.6 °F -0.4 °F 42% 30.09 in 10.0 mi NW 9.2 mph - N/A   Clear
8:35 PM 19.4 °F 8.6 °F -0.4 °F 42% 30.11 in 10.0 mi NW 9.2 mph 16.1 mph N/A   Clear
8:55 PM 19.4 °F 6.0 °F -0.4 °F 42% 30.12 in 10.0 mi WNW 13.8 mph - N/A   Clear
9:15 PM 19.4 °F 8.6 °F 1.4 °F 46% 30.13 in 10.0 mi WNW 9.2 mph - N/A   Clear
9:35 PM 19.4 °F 6.0 °F -0.4 °F 42% 30.14 in 10.0 mi WNW 13.8 mph - N/A   Clear
9:55 PM 17.6 °F 5.0 °F -0.4 °F 45% 30.14 in 10.0 mi WNW 11.5 mph - N/A   Clear
10:15 PM 17.6 °F 2.7 °F -0.4 °F 45% 30.15 in 10.0 mi WNW 16.1 mph 24.2 mph N/A   Clear
10:35 PM 17.6 °F 5.7 °F -0.4 °F 45% 30.16 in 10.0 mi NW 10.4 mph - N/A   Clear
10:55 PM 15.8 °F 5.1 °F -0.4 °F 49% 30.17 in 10.0 mi NW 8.1 mph - N/A   Clear
11:15 PM 17.6 °F 2.2 °F -0.4 °F 45% 30.18 in 10.0 mi WNW 17.3 mph 20.7 mph N/A   Clear
11:17 PM 15.8 °F -0.2 °F -2.2 °F 45% 30.18 in 10.0 mi NW 17.3 mph 20.7 mph N/A   Clear
11:35 PM 15.8 °F 1.4 °F -0.4 °F 49% 30.18 in 10.0 mi WNW 13.8 mph 19.6 mph N/A   Clear
11:55 PM 15.8 °F 3.4 °F -2.2 °F 45% 30.18 in 10.0 mi WNW 10.4 mph - N/A   Clear